SERPENS

Last updated on Sun Mar 27 2016 09:35:45 GMT+0000 (Coordinated Universal Time)

1 40897U 98067GX 16087.17198643 .14496049 12607-4 75186-3 0 9996 2 40897 51.6079 83.5146 0009266 349.7464 11.2974 16.42052915 30018

Satellite not in orbit